Location: Borovka
(49.7741°N, 14.5280°E)
Time: 20:37:27
(UTC+00:00)

ITUPSAT 1 - Visible Passes

Search period start: 16 March 2026 00:00
Search period end: 26 March 2026 00:00
Orbit: 687 x 698 km, 98.4° (Epoch: 16 March)

Date Brightness Start Highest point End Pass type
(mag) Time Alt. Az. Time Alt. Az. Time Alt. Az.
16 Mar ? 23:12:41 10° N 23:12:58 12° N 23:12:58 12° N visible
17 Mar ? 23:52:45 10° N 23:53:08 12° N 23:53:08 12° N visible
18 Mar ? 22:54:13 10° NNE 22:54:36 12° N 22:54:36 12° N visible
19 Mar ? 23:34:05 10° N 23:34:45 14° N 23:34:45 14° N visible
20 Mar ? 22:35:49 10° NNE 22:36:13 12° NNE 22:36:13 12° NNE visible
21 Mar ? 00:14:26 10° NNW 00:14:53 12° NNW 00:14:53 12° NNW visible
21 Mar ? 23:15:30 10° N 23:16:21 15° N 23:16:21 15° N visible
22 Mar ? 22:17:30 10° NNE 22:17:49 12° NNE 22:17:49 12° NNE visible
22 Mar ? 23:55:35 10° N 23:56:30 14° NNW 23:56:30 14° NNW visible
23 Mar ? 22:57:00 10° N 22:57:58 16° N 22:57:58 16° N visible
24 Mar ? 00:36:31 10° NNW 00:36:38 10° NNW 00:36:38 10° NNW visible
24 Mar ? 21:59:17 10° NNE 21:59:25 11° NNE 21:59:25 11° NNE visible
24 Mar ? 23:36:53 10° N 23:38:06 17° N 23:38:06 17° N visible
25 Mar ? 22:38:34 10° NNE 22:39:33 16° NNE 22:39:33 16° NNE visible
